TimeCDT,TemperatureF,Dew PointF,Humidity,Sea Level PressureIn,VisibilityMPH,Wind Direction,Wind SpeedMPH,Gust SpeedMPH,PrecipitationIn,Events,Conditions,WindDirDegrees,DateUTC
12:53 AM,66.0,54.0,65,29.77,10.0,SSE,12.7,-,N/A,,Partly Cloudy,150,2013-09-24 05:53:00
1:53 AM,64.0,54.0,70,29.76,10.0,SSE,8.1,-,N/A,,Clear,150,2013-09-24 06:53:00
2:53 AM,64.0,54.0,70,29.75,10.0,SSE,6.9,-,N/A,,Overcast,150,2013-09-24 07:53:00
3:53 AM,63.0,55.0,75,29.75,10.0,SSE,8.1,-,N/A,,Scattered Clouds,160,2013-09-24 08:53:00
4:53 AM,63.0,55.0,75,29.74,10.0,South,8.1,-,N/A,,Mostly Cloudy,170,2013-09-24 09:53:00
5:53 AM,62.1,55.0,78,29.74,10.0,South,6.9,-,N/A,,Mostly Cloudy,170,2013-09-24 10:53:00
6:53 AM,61.0,55.0,81,29.74,10.0,South,6.9,-,N/A,,Overcast,170,2013-09-24 11:53:00
7:53 AM,57.9,54.0,87,29.75,10.0,SE,3.5,-,N/A,,Clear,130,2013-09-24 12:53:00
8:53 AM,64.0,55.9,75,29.76,10.0,South,6.9,-,N/A,,Clear,180,2013-09-24 13:53:00
9:53 AM,66.9,55.0,66,29.77,10.0,WSW,6.9,-,N/A,,Clear,240,2013-09-24 14:53:00
10:53 AM,68.0,55.9,65,29.78,10.0,Calm,Calm,-,N/A,,Mostly Cloudy,0,2013-09-24 15:53:00
11:53 AM,68.0,55.9,65,29.80,10.0,West,3.5,-,N/A,,Overcast,280,2013-09-24 16:53:00
12:53 PM,69.1,57.0,65,29.81,10.0,Variable,3.5,-,N/A,,Overcast,0,2013-09-24 17:53:00
1:53 PM,70.0,57.0,63,29.81,10.0,WNW,5.8,-,N/A,,Overcast,290,2013-09-24 18:53:00
2:53 PM,68.0,57.0,68,29.82,10.0,West,4.6,-,N/A,,Overcast,260,2013-09-24 19:53:00
3:53 PM,71.1,57.9,63,29.81,10.0,WNW,3.5,-,N/A,,Overcast,290,2013-09-24 20:53:00
4:53 PM,73.9,59.0,59,29.81,10.0,Variable,3.5,-,N/A,,Mostly Cloudy,0,2013-09-24 21:53:00
5:53 PM,73.9,59.0,59,29.82,10.0,ENE,5.8,-,N/A,,Overcast,70,2013-09-24 22:53:00
6:53 PM,69.1,57.9,68,29.83,10.0,Calm,Calm,-,N/A,,Clear,0,2013-09-24 23:53:00
7:53 PM,62.1,59.0,90,29.84,10.0,WNW,3.5,-,N/A,,Scattered Clouds,300,2013-09-25 00:53:00
8:53 PM,61.0,57.9,90,29.85,9.0,North,3.5,-,N/A,,Clear,360,2013-09-25 01:53:00
9:53 PM,60.1,57.0,90,29.85,10.0,NNW,5.8,-,N/A,,Clear,340,2013-09-25 02:53:00
10:53 PM,57.9,55.9,93,29.86,10.0,North,4.6,-,N/A,,Clear,10,2013-09-25 03:53:00
11:53 PM,59.0,55.9,90,29.87,10.0,ENE,3.5,-,N/A,,Clear,60,2013-09-25 04:53:00